Showing default

NAVSTAR 76 (USA 266), 41328

Orbit data source: Space-Track

NAVSTAR 76 (USA 266), 41328 is a payload satellite owned by USAF SMC (US) in MEO that was launched on Fri, 05 Feb 2016 UTC via an ATLAS V 401 launch vehicle from the Air Force Eastern Test Range (AFETR). Payload-class satellites include a variety of spacecraft equipped with specific instruments for various scientific and technological missions. These include communications satellites like Starlink; space stations such as the ISS; scientific satellites like the Hubble; Earth observation satellites from companies like Planet Labs, Umbra, and HawkEye 360; GPS; miniature CubeSats for education and research; and military/defense satellites.

Loading next visibility...
Identifier
41328, 2016-007A
Orbit
MEO
Country
Flag of USUS
Related business
Manufacturer
Boeing/ES
Mission
Operational Defense Navigation
Bus & Motor
GPS IIF, AOCS
Mass
1,630 kg wet, ~1,500 kg dry
Launch date (UTC)
2016-02-05 (10 years ago)
Launch vehicle
ATLAS V 401
Launch site
Air Force Eastern Test Range (AFETR)
Object type
Payload
Rocket body
Debris
Shape & HBR
Box + 2 Pan, 9.0 m
Radar Cross Section
13.960 m², Large (>1 m²)

Expand to show TLE details & history
Last TLE update: 1 week ago

TLE from 1 week ago
0 NAVSTAR 76 (USA 266)
1 41328U 16007A   26164.87780105 -.00000028  00000-0  00000-0 0  9998
2 41328  55.5220  89.5909 0096121 247.4205 111.5460  2.00551861 75774
Epoch: 2026-06-13T21:04Z
TLE epoch observation values (Epoch: 2026-06-13T21:04:02.010Z)
Latitude
0.00008°
Longitude
-128.6067°
Altitude
20,279.882 km
Speed
3.86 km/s
True Right ascension
05h 58m 21s
True Declination
0° 00' 00"
Sunlit
Object was in daylight at epoch
Visualization orbit readout
Latitude
Unknown
Longitude
Unknown
Altitude
Unknown
Speed
Unknown
Apparent Right ascension
Unknown
Apparent Declination
Unknown
Sunlit
N/A
Visualization observer readout
Local Sidereal Time
23:18:36
Azimuth
Unknown
Elevation
Unknown
Doppler factor
Unknown
Orbital elements
Apogee altitude
20,438.542 km
Perigee altitude
19,927.921 km
Semi-major axis
26,561.369 km
Eccentricity
0.00961
Inclination
55.522°
RAAN
89.5909°
Arg. of periapsis
247.4205°
True anomaly
112.56594°
Mean anomaly
111.546°
Eccentric anomaly
112.05643°
Mean motion
0.50138 °/min
Orbital period
718.02 mins
BSTAR
0
Loading maneuver chart data...
Computing Atmospheric mass density...
Loading historical data...
Loading historical data...
Loading historical data...
Loading historical data...
Loading historical data...
Loading historical data...
Loading historical data...
Other satellites on launch #7 in the year 2016 (2016-02-05 UTC)

Documentation

Showing up to 5 results
|